#timestamp,LO_Frequency,Hit 
1501041615.5,286046995.3,N
1501041635.4,286046994.7,N
1501041655.2,286046991.3,N
1501041675.0,286046991.7,N
1501041675.9,286046991.7,N
1501041695.8,286046993.3,N
1501041715.6,286046999.1,N
1501041735.4,286047000.3,N
1501041755.3,286047005.6,N
1501041775.1,286047008.4,N
1501041776.0,286047008.4,N
1501041795.8,286047008.0,N
1501041815.7,286047009.0,N
1501041835.5,286047010.0,N
1501041855.3,286047010.4,N
1501041875.1,286047010.5,N
1501041895.9,286047013.8,N
1501041915.7,286047011.6,N
1501041935.5,286047010.5,N
1501041955.4,286047004.4,N
1501041975.2,286046998.4,N
1501041995.0,286046997.6,N
1501041995.9,286046997.6,N
1501042015.8,286046996.8,N
1501042035.6,286046993.8,N
1501042055.4,286046994.6,N
1501042075.3,286046996.2,N
1501042095.1,286046991.5,N
1501042096.0,286046991.5,N
1501042115.8,286046993.6,N
1501042135.6,286046999.7,N
1501042155.5,286047001.9,N
1501042175.3,286046998.2,N
1501042195.1,286046995.8,N
1501042215.9,286046993.7,N
1501042235.7,286046992.2,N
1501042255.5,286046996.2,N
1501042275.4,286046997.0,N
1501042295.2,286046998.9,N
1501042315.0,286046997.5,N
1501042315.9,286046997.5,N
1501042335.8,286046993.7,N
1501042355.6,286046993.6,N
1501042375.4,286046995.8,N
1501042395.2,286046993.6,N
1501042415.1,286046995.0,N
1501042416.0,286046995.0,N
1501042435.8,286047000.8,N
1501042455.6,286047000.1,N
1501042475.5,286046999.4,N
1501042495.3,286046996.3,N
1501042515.1,286046992.0,N
1501042535.9,286046994.6,N
1501042555.7,286046999.5,N
1501042575.5,286046995.1,N
1501042595.4,286046999.3,N
1501042615.2,286046995.3,N
1501042635.0,286046995.4,N
1501042635.9,286046995.4,N
1501042655.7,286046993.5,N
1501042675.6,286046996.2,N
1501042695.4,286046993.9,N
1501042715.2,286046997.9,N
1501042735.1,286046996.7,N
1501042736.0,286046996.7,N
1501042755.8,286047000.3,N
1501042775.6,286047000.7,N
1501042795.5,286047000.0,N
1501042815.3,286046999.0,N
1501042835.1,286047004.0,N
1501042855.9,286046998.5,N
1501042875.7,286046999.9,N
1501042895.5,286047002.2,N
1501042915.3,286047004.3,N
1501042935.2,286047007.0,N
1501042955.0,286047004.8,N
1501042955.9,286047004.8,N
1501042975.7,286047003.9,N
1501042995.6,286047004.3,N
1501043015.4,286047002.3,N
1501043035.2,286047001.2,N
1501043055.1,286047001.1,N
1501043056.0,286047001.1,N
1501043075.8,286047000.9,N
1501043095.6,286047004.3,N
1501043115.5,286047005.8,N
1501043135.3,286047003.4,N
1501043155.1,286047002.1,N
1501043175.8,286047000.8,N
1501043195.7,286047000.7,N
1501043215.5,286047000.8,N
1501043235.3,286046999.4,N
1501043255.2,286046998.2,N
1501043275.9,286047000.3,N
1501043295.7,286047001.9,N
1501043315.6,286047003.9,N
1501043335.4,286047002.6,N
1501043355.2,286047000.5,N
1501043375.1,286047000.3,N
1501043376.0,286047000.3,N
1501043395.8,286046998.1,N
1501043415.6,286047002.3,N
1501043435.4,286047001.5,N
1501043455.3,286046998.1,N
1501043475.1,286047004.3,N
1501043495.8,286047003.6,N
1501043515.7,286047002.1,N
1501043535.5,286046996.9,N
1501043555.3,286046994.3,N
1501043575.2,286046993.9,N
1501043595.9,286046998.0,N
1501043615.7,286046996.8,N
1501043635.6,286047000.9,N
1501043655.4,286046999.9,N
1501043675.2,286047001.0,N
1501043695.0,286046997.1,N
1501043695.9,286046997.1,N
1501043715.8,286046993.3,N
1501043735.6,286046994.4,N
1501043755.4,286046993.9,N
1501043775.3,286046994.6,N
1501043795.1,286046994.8,N
1501043815.8,286046991.7,N
1501043835.7,286046999.1,N
1501043855.5,286047002.4,N
1501043875.3,286047004.4,N
1501043895.2,286047005.6,N
1501043915.9,286047007.0,N
1501043935.7,286047005.0,N
1501043955.5,286047006.0,N
1501043975.4,286047001.8,N
1501043995.2,286047002.6,N
1501044015.0,286047000.8,N
1501044015.9,286047000.8,N
1501044035.8,286046996.9,N
1501044055.6,286046994.5,N
1501044075.4,286046990.9,N
1501044095.3,286046996.3,N
1501044115.1,286046998.4,N
1501044116.0,286046998.4,N
1501044135.8,286046999.3,N
1501044155.7,286046999.3,N
1501044175.5,286046998.9,N
1501044195.3,286046994.9,N
1501044215.2,286046996.9,N
1501044235.9,286046999.0,N
1501044255.7,286046997.7,N
1501044275.5,286046993.7,N
1501044295.4,286046990.1,N
1501044315.2,286046991.3,N
1501044335.0,286046991.0,N
1501044335.9,286046991.0,N
1501044355.8,286046992.0,N
1501044375.6,286046993.5,N
1501044395.4,286046993.9,N
1501044415.3,286046994.8,N
1501044435.1,286046995.8,N
1501044436.0,286046995.8,N
1501044455.8,286046994.4,N
1501044475.7,286046990.2,N
1501044495.5,286046993.0,N
1501044515.3,286046991.9,N
1501044535.1,286046990.2,N
1501044555.9,286046993.0,N
1501044575.7,286046991.4,N
1501044595.5,286046991.3,N
1501044615.4,286046994.0,N
1501044635.2,286046990.6,N
1501044655.0,286046990.9,N
1501044655.9,286046990.9,N
1501044675.8,286046996.3,N
1501044695.6,286046998.0,N
1501044715.4,286046996.2,N
1501044735.3,286046994.2,N
1501044755.1,286046990.6,N
1501044756.0,286046990.6,N
1501044775.8,286046990.7,N
1501044795.6,286046990.9,N
1501044815.5,286046993.3,N
1501044835.3,286047000.2,N
1501044855.1,286047003.4,N
1501044875.9,286047006.7,N
1501044895.7,286047010.1,N
1501044915.5,286047011.4,N
1501044935.4,286047011.2,N
1501044955.2,286047005.8,N
1501044975.0,286047004.4,N
1501044975.9,286047004.4,N
1501044995.8,286047000.0,N
1501045015.6,286047005.1,N
1501045035.4,286047008.1,N
1501045055.3,286047010.1,N
1501045075.1,286047008.0,N
1501045076.0,286047008.0,N
1501045095.8,286046999.8,N
1501045115.6,286046996.5,N
1501045135.5,286046997.0,N
1501045155.3,286046999.5,N
1501045175.1,286046998.9,N
1501045195.9,286047000.0,N
